User: anonymous   Login
Location: Unspecified
(0.0000°N, 0.0000°E)
Time: 00:05:26
(UTC+02:00)
Language:

Cosmos 1703 - Orbit

View from above orbital plane
View from above orbital plane
View from above satellite
View from above satellite

Ground track
Ground track

The orbit data is extracted from the following two-line orbital elements,

1 16262U 85108A   16178.71960176 +.00001104 +00000-0 +66498-4 0  9992
2 16262 082.4753 238.8855 0011619 069.3905 290.8570 15.09763767664993
Epoch (UTC): 26 June 2016 17:16:13
Eccentricity: 0.0011619
inclination: 82.4753°
perigee height: 529 km
apogee height: 545 km
right ascension of ascending node: 238.8855°
argument of perigee: 69.3905°
revolutions per day: 15.09763767
mean anomaly at epoch: 290.8570°
orbit number at epoch: 66499

The dashed part of the orbit path shows where the satellite is in the earth's shadow,  

DLR